FW9064 Weather Reports


Display with metric or nautical units.
time (UTC)temp
F
wind
direction
speed
MPH
gust
MPH
rain 1hr
in
rain 24hr
in
rain mn
in
humidity
%
barometer
mb
20260903065810 75 111 0.0 0.0 0.00 0.00 0.00 98 1016.9
20260903065310 75 111 0.0 0.0 0.00 0.00 0.00 97 1017.1
20260903064809 75 111 0.0 0.0 0.00 0.00 0.00 97 1017.2
20260903064305 75 111 0.0 0.0 0.00 0.00 0.00 97 1017.2
20260903063801 75 112 0.0 0.0 0.00 0.00 0.00 97 1017.1
20260903063255 75 112 0.0 0.0 0.00 0.00 0.00 97 1016.9
20260903062751 75 111 0.0 0.0 0.00 0.00 0.00 97 1017.1
20260903062250 75 112 0.0 0.0 0.00 0.00 0.00 97 1017.0
20260903061747 75 112 0.0 0.0 0.00 0.00 0.00 97 1017.2
20260903061246 75 111 0.0 0.0 0.00 0.00 0.00 97 1017.4
20260903060742 75 110 0.0 0.0 0.00 0.00 0.00 97 1017.2
20260903060242 75 111 0.0 0.0 0.00 0.00 0.00 96 1017.3
20260903055739 76 111 0.0 0.0 0.00 0.00 0.00 96 1016.9
20260903055238 76 111 0.0 0.0 0.00 0.00 0.00 96 1017.0
20260903054733 76 111 0.0 0.0 0.00 0.00 0.00 96 1017.1
20260903054228 76 111 0.0 0.0 0.00 0.00 0.00 96 1016.9
20260903053725 76 111 0.0 0.0 0.00 0.00 0.00 96 1017.1
20260903053224 76 111 0.0 0.0 0.00 0.00 0.00 96 1017.1
20260903052720 76 112 0.0 0.0 0.00 0.00 0.00 96 1017.2
20260903052216 76 112 0.0 0.0 0.00 0.00 0.00 95 1016.9
20260903051711 76 112 0.0 0.0 0.00 0.00 0.00 95 1017.0
20260903051206 76 111 0.0 0.0 0.00 0.00 0.00 95 1017.1
20260903050702 76 111 0.0 0.0 0.00 0.00 0.00 95 1017.1
20260903050200 76 111 0.0 0.0 0.00 0.00 0.00 95 1017.0
20260903045656 76 112 0.0 0.0 0.00 0.00 0.00 95 1017.0
20260903045152 77 111 0.0 0.0 0.00 0.00 0.00 95 1017.3
20260903044647 77 113 0.0 0.0 0.00 0.00 0.00 95 1017.3
20260903044137 77 110 0.0 0.0 0.00 0.00 0.00 94 1017.4
20260903043634 77 111 0.0 0.0 0.00 0.00 0.00 94 1017.0
20260903043133 77 108 0.0 0.0 0.00 0.00 0.00 94 1017.3
20260903042632 77 112 0.0 0.0 0.00 0.00 0.00 93 1017.1
20260903042128 77 112 0.0 0.0 0.00 0.00 0.00 93 1017.0
20260903041625 77 113 0.0 0.0 0.00 0.00 0.00 93 1017.3
20260903041120 77 113 0.0 0.0 0.00 0.00 0.00 93 1017.1
20260903040619 77 113 0.0 0.0 0.00 0.00 0.00 93 1017.3
20260903040116 77 113 0.0 0.0 0.00 0.00 0.00 93 1017.1
20260903035610 78 112 0.0 0.0 0.00 0.00 0.00 93 1017.2
20260903035106 78 113 0.0 0.0 0.00 0.00 0.00 93 1017.1
20260903034601 78 112 0.0 0.0 0.00 0.00 0.00 93 1016.9
20260903034056 78 113 0.0 0.0 0.00 0.00 0.00 93 1017.1
20260903033551 78 111 0.0 0.0 0.00 0.00 0.00 93 1017.1
20260903033046 78 113 0.0 0.0 0.00 0.00 0.00 92 1016.8
20260903032541 78 112 0.0 0.0 0.00 0.00 0.00 92 1017.0
20260903032037 78 112 0.0 0.0 0.00 0.00 0.00 92 1017.1
20260903031536 79 112 0.0 0.0 0.00 0.00 0.00 92 1017.2
20260903031032 79 112 0.0 0.0 0.00 0.00 0.00 92 1017.1
20260903030527 79 111 0.0 0.0 0.00 0.00 0.00 91 1017.1
20260903030023 79 112 0.0 0.0 0.00 0.00 0.00 91 1017.0
20260903025518 79 111 0.0 0.0 0.00 0.00 0.00 90 1017.1
20260903025014 79 113 0.0 0.0 0.00 0.00 0.00 90 1017.1
20260903024514 79 113 0.0 0.0 0.00 0.00 0.00 90 1017.1
20260903024008 79 113 0.0 0.0 0.00 0.00 0.00 90 1017.1
20260903023504 80 112 0.0 0.0 0.00 0.00 0.00 90 1017.0
20260903022959 80 111 0.0 0.0 0.00 0.00 0.00 89 1017.2
20260903022458 80 113 0.0 0.0 0.00 0.00 0.00 89 1017.2
20260903021956 80 113 0.0 0.0 0.00 0.00 0.00 89 1016.9
20260903021452 80 113 0.0 0.0 0.00 0.00 0.00 88 1017.0
20260903020947 80 113 0.0 0.0 0.00 0.00 0.00 88 1017.2
20260903020442 81 112 0.0 0.0 0.00 0.00 0.00 88 1017.1
20260903015937 81 113 0.0 0.0 0.00 0.00 0.00 87 1016.9
20260903015432 81 113 0.0 0.0 0.00 0.00 0.00 87 1016.9
20260903014927 81 113 0.0 0.0 0.00 0.00 0.00 87 1016.9
20260903014426 81 113 0.0 0.0 0.00 0.00 0.00 87 1017.1
20260903013921 81 113 0.0 0.0 0.00 0.00 0.00 86 1016.5
20260903013421 82 113 0.0 0.0 0.00 0.00 0.00 86 1016.6
20260903012915 82 113 0.0 0.0 0.00 0.00 0.00 86 1016.6
20260903012415 82 114 0.0 0.0 0.00 0.00 0.00 85 1016.6
20260903011914 82 111 0.0 0.0 0.00 0.00 0.00 85 1016.7
20260903011408 83 113 0.0 0.0 0.00 0.00 0.00 84 1016.5
20260903010903 83 113 0.0 0.0 0.00 0.00 0.00 83 1016.5
20260903010359 83 113 0.0 0.0 0.00 0.00 0.00 83 1016.4
20260903005856 84 113 0.0 0.0 0.00 0.00 0.00 82 1016.4
20260903005352 84 113 0.0 0.0 0.00 0.00 0.00 81 1016.3
20260903004848 84 113 0.0 0.0 0.00 0.00 0.00 80 1016.2
20260903004344 85 113 0.0 0.0 0.00 0.00 0.00 79 1016.3
20260903003839 85 114 0.0 0.0 0.00 0.00 0.00 79 1016.3
20260903003339 86 113 0.0 0.0 0.00 0.00 0.00 77 1016.3
20260903002838 86 114 0.0 0.0 0.00 0.00 0.00 76 1016.2
20260903002334 86 113 0.0 0.0 0.00 0.00 0.00 75 1016.2
20260903001828 87 114 0.0 0.0 0.00 0.00 0.00 74 1016.2
20260903001324 87 114 0.0 0.0 0.00 0.00 0.00 73 1016.3
20260903000823 88 114 0.0 0.0 0.00 0.00 0.00 72 1016.1
20260903000318 88 114 0.0 0.0 0.00 0.00 0.00 71 1016.2
20260902235816 89 114 0.0 0.0 0.00 0.00 0.00 69 1016.5
20260902235312 89 114 0.0 0.0 0.00 0.00 0.00 68 1016.3
20260902234806 90 114 0.0 0.0 0.00 0.00 0.00 66 1016.2
20260902234306 90 114 0.0 0.0 0.00 0.00 0.00 65 1016.2
20260902233805 91 112 0.0 0.0 0.00 0.00 0.00 64 1016.2
20260902233305 91 109 0.0 0.0 0.00 0.00 0.00 63 1016.1
20260902232803 92 116 0.0 0.0 0.00 0.00 0.00 61 1016.2
20260902232258 92 114 0.0 0.0 0.00 0.00 0.00 59 1015.8
20260902231757 93 113 0.0 0.0 0.00 0.00 0.00 58 1016.2
20260902231252 93 116 0.0 0.0 0.00 0.00 0.00 57 1016.1
20260902230747 94 122 0.0 0.0 0.00 0.00 0.00 56 1016.0
20260902230246 94 109 0.0 0.0 0.00 0.00 0.00 56 1016.0
20260902225741 94 116 0.0 0.0 0.00 0.00 0.00 57 1016.1
20260902225236 95 114 0.0 0.0 0.00 0.00 0.00 55 1016.0
20260902224734 95 114 0.0 0.0 0.00 0.00 0.00 53 1016.1
20260902224230 95 108 0.0 0.0 0.00 0.00 0.00 54 1016.2
20260902223726 95 109 0.0 0.0 0.00 0.00 0.00 55 1015.9
20260902223225 96 107 0.0 0.0 0.00 0.00 0.00 53 1015.9
20260902222724 95 111 0.0 0.0 0.00 0.00 0.00 52 1015.9
20260902222219 95 86 0.0 0.0 0.00 0.00 0.00 54 1016.0
20260902221714 96 116 0.0 1.0 0.00 0.00 0.00 52 1016.0
20260902221213 96 116 0.0 0.0 0.00 0.00 0.00 55 1016.3
20260902220708 96 115 0.0 0.0 0.00 0.00 0.00 53 1016.0
20260902220203 95 114 0.0 0.0 0.00 0.00 0.00 54 1016.2
20260902215659 95 94 0.0 0.0 0.00 0.00 0.00 55 1016.2
20260902215154 95 112 0.0 1.0 0.00 0.00 0.00 55 1016.3
20260902214649 95 103 0.0 0.0 0.00 0.00 0.00 53 1016.2
20260902214148 96 110 0.0 0.0 0.00 0.00 0.00 54 1016.1
20260902213643 95 109 0.0 1.0 0.00 0.00 0.00 55 1016.3
20260902213143 96 113 0.0 0.0 0.00 0.00 0.00 56 1016.2
20260902212638 96 116 0.0 0.0 0.00 0.00 0.00 55 1016.5
20260902212134 96 116 0.0 0.0 0.00 0.00 0.00 53 1016.6
20260902211631 96 91 4.0 5.0 0.00 0.00 0.00 51 1016.5
20260902211125 96 60 1.0 1.0 0.00 0.00 0.00 53 1016.5
20260902210625 96 104 2.0 3.0 0.00 0.00 0.00 52 1016.3
20260902210120 96 83 3.0 3.0 0.00 0.00 0.00 51 1016.5
20260902205619 96 118 1.0 1.0 0.00 0.00 0.00 52 1016.6
20260902205114 96 113 1.0 1.0 0.00 0.00 0.00 52 1016.5
20260902204614 96 110 0.0 1.0 0.00 0.00 0.00 52 1016.5
20260902204109 96 114 0.0 1.0 0.00 0.00 0.00 52 1016.4
20260902203605 96 106 1.0 1.0 0.00 0.00 0.00 52 1016.6
20260902203104 95 115 0.0 0.0 0.00 0.00 0.00 53 1016.6
20260902202600 96 114 0.0 0.0 0.00 0.00 0.00 51 1016.6
20260902202056 97 104 0.0 0.0 0.00 0.00 0.00 49 1017.0
20260902201551 97 97 1.0 1.0 0.00 0.00 0.00 51 1016.7
20260902201045 97 112 2.0 2.0 0.00 0.00 0.00 50 1017.1
20260902200540 97 117 0.0 0.0 0.00 0.00 0.00 50 1016.8
20260902200036 97 116 1.0 1.0 0.00 0.00 0.00 50 1017.0
20260902195532 97 130 1.0 1.0 0.00 0.00 0.00 50 1017.1
20260902195031 97 113 1.0 2.0 0.00 0.00 0.00 48 1017.1
20260902194530 97 105 2.0 2.0 0.00 0.00 0.00 48 1017.0
20260902194026 97 109 2.0 3.0 0.00 0.00 0.00 46 1017.1
20260902193522 98 105 2.0 3.0 0.00 0.00 0.00 48 1017.3
20260902193021 97 114 0.0 0.0 0.00 0.00 0.00 49 1017.5
20260902192520 98 94 1.0 1.0 0.00 0.00 0.00 49 1017.4
20260902192019 98 116 0.0 0.0 0.00 0.00 0.00 50 1017.7
20260902191514 99 101 2.0 2.0 0.00 0.00 0.00 48 1017.8
20260902191009 99 120 2.0 2.0 0.00 0.00 0.00 49 1017.7
20260902190504 99 111 1.0 1.0 0.00 0.00 0.00 50 1017.6
20260902185959 98 116 0.0 0.0 0.00 0.00 0.00 51 1017.8
20260902185455 96 224 1.0 1.0 0.00 0.00 0.00 51 1017.9
20260902184951 96 115 0.0 1.0 0.00 0.00 0.00 52 1018.0
20260902184446 97 106 1.0 1.0 0.00 0.00 0.00 50 1018.1
20260902183941 101 77 2.0 3.0 0.00 0.00 0.00 46 1018.1
20260902183437 100 116 0.0 0.0 0.00 0.00 0.00 49 1018.1
20260902182933 99 116 1.0 1.0 0.00 0.00 0.00 46 1018.2
20260902182429 99 107 1.0 1.0 0.00 0.00 0.00 46 1018.4
20260902181926 100 110 0.0 1.0 0.00 0.00 0.00 47 1018.3
20260902181421 99 115 0.0 0.0 0.00 0.00 0.00 47 1018.2
20260902180921 99 116 2.0 2.0 0.00 0.00 0.00 49 1018.4
20260902180416 99 100 1.0 2.0 0.00 0.00 0.00 48 1018.5
20260902175912 99 105 1.0 2.0 0.00 0.00 0.00 48 1018.2
20260902175407 98 155 1.0 1.0 0.00 0.00 0.00 51 1018.6
20260902174902 99 160 0.0 1.0 0.00 0.00 0.00 50 1018.6
20260902174359 99 116 0.0 1.0 0.00 0.00 0.00 49 1018.7
20260902173855 98 195 2.0 3.0 0.00 0.00 0.00 48 1018.9
20260902173354 99 162 2.0 3.0 0.00 0.00 0.00 50 1018.8
20260902172849 99 101 0.0 0.0 0.00 0.00 0.00 49 1018.8
20260902172348 99 117 0.0 0.0 0.00 0.00 0.00 51 1018.8
20260902171844 99 101 2.0 2.0 0.00 0.00 0.00 49 1019.0
20260902171339 98 108 1.0 1.0 0.00 0.00 0.00 49 1019.0
20260902170835 99 136 0.0 1.0 0.00 0.00 0.00 49 1018.9
20260902170330 98 112 1.0 1.0 0.00 0.00 0.00 52 1019.0
20260902165826 98 124 1.0 2.0 0.00 0.00 0.00 47 1019.4
20260902165325 98 154 0.0 1.0 0.00 0.00 0.00 48 1019.5
20260902164820 97 170 2.0 2.0 0.00 0.00 0.00 49 1019.2
20260902164315 98 125 0.0 1.0 0.00 0.00 0.00 50 1019.7
20260902163809 97 112 0.0 0.0 0.00 0.00 0.00 53 1019.7
20260902163303 97 133 0.0 1.0 0.00 0.00 0.00 52 1019.6
20260902162801 98 115 1.0 2.0 0.00 0.00 0.00 52 1019.7
20260902162257 97 113 0.0 0.0 0.00 0.00 0.00 53 1019.6
20260902161756 96 111 0.0 1.0 0.00 0.00 0.00 57 1019.6
20260902161253 96 123 0.0 1.0 0.00 0.00 0.00 56 1019.9
20260902160748 97 116 0.0 0.0 0.00 0.00 0.00 54 1019.8
20260902160243 95 102 0.0 0.0 0.00 0.00 0.00 59 1019.8
20260902155741 96 108 0.0 0.0 0.00 0.00 0.00 62 1020.0
20260902155240 96 109 0.0 0.0 0.00 0.00 0.00 60 1019.9
20260902154735 96 84 0.0 1.0 0.00 0.00 0.00 59 1019.7
20260902154231 95 118 0.0 0.0 0.00 0.00 0.00 59 1020.0
20260902153730 95 194 0.0 2.0 0.00 0.00 0.00 60 1019.8
20260902153230 95 108 0.0 0.0 0.00 0.00 0.00 62 1020.0
20260902152726 94 115 0.0 0.0 0.00 0.00 0.00 64 1020.1
20260902152221 95 141 0.0 0.0 0.00 0.00 0.00 62 1020.0
20260902151716 94 114 0.0 0.0 0.00 0.00 0.00 61 1020.0
20260902151212 94 119 0.0 0.0 0.00 0.00 0.00 64 1020.1
20260902150707 94 113 0.0 0.0 0.00 0.00 0.00 64 1019.9
20260902150203 94 112 0.0 0.0 0.00 0.00 0.00 65 1020.0
20260902145701 93 113 0.0 0.0 0.00 0.00 0.00 64 1020.1
20260902145201 92 113 0.0 0.0 0.00 0.00 0.00 68 1020.0
20260902144658 92 116 0.0 0.0 0.00 0.00 0.00 68 1019.8
20260902144153 91 96 0.0 0.0 0.00 0.00 0.00 66 1019.8
20260902143648 91 103 0.0 0.0 0.00 0.00 0.00 68 1020.1
20260902143143 90 112 0.0 0.0 0.00 0.00 0.00 70 1019.8
20260902142639 90 121 0.0 0.0 0.00 0.00 0.00 71 1019.8
20260902142135 89 108 0.0 0.0 0.00 0.00 0.00 72 1020.0
20260902141633 90 106 0.0 0.0 0.00 0.00 0.00 70 1019.7
20260902141130 89 115 0.0 0.0 0.00 0.00 0.00 72 1020.0
20260902140624 88 112 0.0 0.0 0.00 0.00 0.00 72 1020.1
20260902140120 88 113 0.0 0.0 0.00 0.00 0.00 73 1019.9
20260902135619 86 108 0.0 0.0 0.00 0.00 0.00 75 1019.9
20260902135114 84 111 0.0 0.0 0.00 0.00 0.00 80 1019.9
20260902134610 83 110 0.0 0.0 0.00 0.00 0.00 81 1019.8
20260902134110 82 109 0.0 0.0 0.00 0.00 0.00 85 1020.0
20260902133604 80 108 0.0 0.0 0.00 0.00 0.00 87 1019.9
20260902133105 79 114 0.0 0.0 0.00 0.00 0.00 90 1020.1
20260902132559 78 109 0.0 0.0 0.00 0.00 0.00 93 1019.8
20260902132055 77 108 0.0 0.0 0.00 0.00 0.00 95 1019.7
20260902131551 76 104 0.0 0.0 0.00 0.00 0.00 97 1019.9
20260902131046 76 110 0.0 0.0 0.00 0.00 0.00 98 1020.0
20260902130542 75 110 0.0 0.0 0.00 0.00 0.00 99 1019.8
20260902130037 75 111 0.0 0.0 0.00 0.00 0.00 99 1020.0
20260902125533 74 110 0.0 0.0 0.00 0.00 0.00 99 1020.0
20260902125028 74 110 0.0 0.0 0.00 0.00 0.00 99 1020.0
20260902124525 73 112 0.0 0.0 0.00 0.00 0.00 99 1019.9
20260902124024 73 109 0.0 0.0 0.00 0.00 0.00 99 1019.6
20260902123521 73 109 0.0 0.0 0.00 0.00 0.00 99 1020.0
20260902123020 72 109 0.0 0.0 0.00 0.00 0.00 99 1019.6
20260902122514 72 109 0.0 0.0 0.00 0.00 0.00 99 1019.7
20260902122010 72 109 0.0 0.0 0.00 0.00 0.00 99 1019.7
20260902121505 72 109 0.0 0.0 0.00 0.00 0.00 99 1019.8
20260902121000 71 109 0.0 0.0 0.00 0.00 0.00 99 1019.5
20260902120456 71 111 0.0 0.0 0.00 0.00 0.00 99 1019.7
20260902115956 71 110 0.0 0.0 0.00 0.00 0.00 99 1019.7
20260902115452 71 110 0.0 0.0 0.00 0.00 0.00 99 1019.5
20260902114948 71 110 0.0 0.0 0.00 0.00 0.00 99 1019.6
20260902114443 71 111 0.0 0.0 0.00 0.00 0.00 99 1019.5
20260902113938 71 111 0.0 0.0 0.00 0.00 0.00 99 1019.5
20260902113434 71 111 0.0 0.0 0.00 0.00 0.00 99 1019.5
20260902112933 70 110 0.0 0.0 0.00 0.00 0.00 99 1019.2
20260902112430 71 110 0.0 0.0 0.00 0.00 0.00 99 1019.3
20260902111926 71 110 0.0 0.0 0.00 0.00 0.00 99 1019.2
20260902111422 71 111 0.0 0.0 0.00 0.00 0.00 99 1019.1
20260902110918 71 110 0.0 0.0 0.00 0.00 0.00 99 1019.2
20260902110414 71 110 0.0 0.0 0.00 0.00 0.00 99 1019.0
20260902105914 71 110 0.0 0.0 0.00 0.00 0.00 99 1019.1
20260902105409 71 110 0.0 0.0 0.00 0.00 0.00 99 1019.3
20260902104904 71 108 0.0 0.0 0.00 0.00 0.00 99 1019.1
20260902104400 71 110 0.0 0.0 0.00 0.00 0.00 99 1019.1
20260902103859 71 109 0.0 0.0 0.00 0.00 0.00 99 1019.0
20260902103354 71 110 0.0 0.0 0.00 0.00 0.00 99 1018.9
20260902102849 71 111 0.0 0.0 0.00 0.00 0.00 99 1018.9
20260902102348 71 111 0.0 0.0 0.00 0.00 0.00 99 1019.1
20260902101842 71 110 0.0 0.0 0.00 0.00 0.00 99 1018.9
20260902101336 71 110 0.0 0.0 0.00 0.00 0.00 99 1019.0
20260902100831 71 111 0.0 0.0 0.00 0.00 0.00 99 1018.9
20260902100331 71 111 0.0 0.0 0.00 0.00 0.00 99 1018.9
20260902095826 71 111 0.0 0.0 0.00 0.00 0.00 99 1018.7
20260902095325 71 111 0.0 0.0 0.00 0.00 0.00 99 1018.9
20260902094825 71 111 0.0 0.0 0.00 0.00 0.00 99 1018.8
20260902094322 71 111 0.0 0.0 0.00 0.00 0.00 99 1018.8
20260902093821 71 111 0.0 0.0 0.00 0.00 0.00 99 1018.5
20260902093316 71 110 0.0 0.0 0.00 0.00 0.00 99 1018.4
20260902092815 71 109 0.0 0.0 0.00 0.00 0.00 99 1018.4
20260902092311 71 110 0.0 0.0 0.00 0.00 0.00 99 1018.3
20260902091811 71 110 0.0 0.0 0.00 0.00 0.00 99 1018.3
20260902091307 71 109 0.0 0.0 0.00 0.00 0.00 99 1018.4
20260902090803 71 109 0.0 0.0 0.00 0.00 0.00 99 1018.2
20260902090302 72 110 0.0 0.0 0.00 0.00 0.00 99 1018.1
20260902085801 72 110 0.0 0.0 0.00 0.00 0.00 99 1018.1
20260902085257 72 109 0.0 0.0 0.00 0.00 0.00 99 1018.2
20260902084752 72 111 0.0 0.0 0.00 0.00 0.00 99 1018.1
20260902084248 72 111 0.0 0.0 0.00 0.00 0.00 99 1018.1
20260902083743 72 111 0.0 0.0 0.00 0.00 0.00 99 1018.1
20260902083238 72 111 0.0 0.0 0.00 0.00 0.00 99 1018.2
20260902082733 72 111 0.0 0.0 0.00 0.00 0.00 99 1017.9
20260902082230 72 113 0.0 0.0 0.00 0.00 0.00 99 1017.9
20260902081726 72 111 0.0 0.0 0.00 0.00 0.00 99 1017.8
20260902081221 72 112 0.0 0.0 0.00 0.00 0.00 99 1018.0
20260902080716 72 110 0.0 0.0 0.00 0.00 0.00 99 1017.8
20260902080213 72 110 0.0 0.0 0.00 0.00 0.00 99 1017.7
20260902075712 72 110 0.0 0.0 0.00 0.00 0.00 99 1017.9
20260902075209 72 110 0.0 0.0 0.00 0.00 0.00 99 1017.8
20260902074708 73 111 0.0 0.0 0.00 0.00 0.00 99 1018.0
20260902074203 73 111 0.0 0.0 0.00 0.00 0.00 99 1018.0
20260902073658 73 110 0.0 0.0 0.00 0.00 0.00 99 1018.0
20260902073154 73 110 0.0 0.0 0.00 0.00 0.00 99 1018.0
20260902072651 73 110 0.0 0.0 0.00 0.00 0.00 99 1017.7
20260902072147 73 110 0.0 0.0 0.00 0.00 0.00 98 1017.9
20260902071642 73 111 0.0 0.0 0.00 0.00 0.00 98 1017.8
20260902071137 73 111 0.0 0.0 0.00 0.00 0.00 98 1017.8
20260902070634 73 111 0.0 0.0 0.00 0.00 0.00 98 1018.2
20260902070133 73 112 0.0 0.0 0.00 0.00 0.00 98 1017.9